GW3855 Weather Reports


time (UTC)temp
C
wind
direction
speed
KPH
gust
KPH
rain 1hr
cm
rain 24hr
cm
rain mn
cm
humidity
%
barometer
mb
20260503025510 9 207 6.4 6.4 0.00 0.00 0.00 93 1009.2
20260503025008 9 208 6.4 6.4 0.00 0.00 0.00 93 1009.3
20260503024504 10 208 6.4 6.4 0.00 0.00 0.00 93 1009.3
20260503024001 10 209 6.4 6.4 0.00 0.00 0.00 93 1009.3
20260503023457 10 197 6.4 6.4 0.00 0.00 0.00 93 1009.2
20260503022954 10 198 6.4 6.4 0.00 0.00 0.00 92 1009.3
20260503022450 10 186 4.8 4.8 0.00 0.00 0.00 92 1009.3
20260503021945 10 189 6.4 6.4 0.00 0.00 0.00 92 1009.6
20260503021442 10 156 6.4 6.4 0.00 0.00 0.00 92 1009.7
20260503020940 10 200 8.0 9.7 0.00 0.00 0.00 92 1009.6
20260503020437 10 166 6.4 6.4 0.00 0.00 0.00 92 1009.4
20260503015934 10 150 3.2 3.2 0.00 0.00 0.00 92 1009.6
20260503015430 10 155 3.2 4.8 0.00 0.00 0.00 91 1009.8
20260503014926 9 150 1.6 3.2 0.00 0.00 0.00 91 1009.7
20260503014418 9 93 0.0 0.0 0.00 0.00 0.00 91 1009.6
20260503013916 9 144 0.0 0.0 0.00 0.00 0.00 91 1009.7
20260503013413 9 144 1.6 3.2 0.00 0.00 0.00 90 1009.9
20260503012910 9 132 0.0 1.6 0.00 0.00 0.00 90 1009.8
20260503012408 9 93 0.0 0.0 0.00 0.00 0.00 90 1009.8
20260503011904 9 92 0.0 0.0 0.00 0.00 0.00 90 1009.8
20260503011401 9 83 0.0 0.0 0.00 0.00 0.00 90 1009.9
20260503010857 9 77 0.0 0.0 0.00 0.00 0.00 90 1009.8
20260503010354 9 82 0.0 0.0 0.00 0.00 0.00 90 1009.6
20260503005851 10 93 0.0 0.0 0.00 0.00 0.00 90 1009.6
20260503005349 10 109 0.0 0.0 0.00 0.00 0.00 90 1009.6
20260503004845 10 106 1.6 3.2 0.00 0.00 0.00 90 1009.5
20260503004342 10 114 1.6 3.2 0.00 0.00 0.00 90 1009.5
20260503003840 10 116 1.6 3.2 0.00 0.00 0.00 91 1009.6
20260503003336 10 153 3.2 4.8 0.00 0.00 0.00 91 1009.4
20260503002832 10 140 6.4 6.4 0.00 0.00 0.00 91 1009.5
20260503002325 10 100 1.6 3.2 0.00 0.00 0.00 91 1009.7
20260503001821 10 123 1.6 3.2 0.00 0.00 0.00 91 1009.4
20260503001317 10 152 3.2 4.8 0.00 0.00 0.00 91 1009.4
20260503000815 10 119 3.2 3.2 0.00 0.00 0.00 91 1009.5
20260503000313 10 183 6.4 6.4 0.00 0.00 0.00 91 1009.5
20260502235809 10 131 4.8 4.8 0.00 0.00 0.00 91 1009.5
20260502235306 10 130 3.2 4.8 0.00 0.00 0.00 91 1009.3
20260502234803 10 189 3.2 4.8 0.00 0.00 0.00 91 1009.5
20260502234300 10 152 4.8 6.4 0.00 0.00 0.00 91 1009.4
20260502233756 10 154 4.8 6.4 0.00 0.00 0.00 91 1009.4
20260502233253 10 155 4.8 4.8 0.00 0.00 0.00 90 1009.5
20260502232749 10 165 4.8 4.8 0.00 0.00 0.00 90 1009.5
20260502232246 10 160 4.8 4.8 0.00 0.00 0.00 90 1009.6
20260502231743 10 175 6.4 6.4 0.00 0.00 0.00 91 1009.7
20260502231240 10 185 6.4 6.4 0.00 0.00 0.00 91 1009.6
20260502230739 10 199 6.4 6.4 0.00 0.00 0.00 91 1009.5
20260502230237 10 190 8.0 9.7 0.00 0.00 0.00 90 1009.5
20260502225733 10 201 9.7 9.7 0.00 0.00 0.00 90 1009.8
20260502225230 10 174 6.4 6.4 0.00 0.00 0.00 90 1009.7
20260502224726 10 199 8.0 9.7 0.00 0.00 0.00 90 1009.8
20260502224223 10 175 8.0 9.7 0.00 0.00 0.00 90 1009.6
20260502223720 10 197 9.7 11.3 0.00 0.00 0.00 90 1009.6
20260502223218 10 189 9.7 11.3 0.00 0.00 0.00 90 1009.6
20260502222716 10 194 11.3 12.9 0.00 0.00 0.00 90 1009.7
20260502222212 10 201 11.3 12.9 0.00 0.00 0.00 90 1009.6
20260502221708 10 209 9.7 11.3 0.00 0.00 0.00 90 1009.5
20260502221205 10 206 11.3 12.9 0.00 0.00 0.00 90 1009.5
20260502220701 10 202 8.0 9.7 0.00 0.00 0.00 90 1009.4
20260502220158 10 211 8.0 9.7 0.00 0.00 0.00 90 1009.6
20260502215655 10 195 9.7 9.7 0.00 0.00 0.00 91 1009.6
20260502215151 10 207 9.7 11.3 0.00 0.00 0.00 91 1009.7
20260502214649 10 195 9.7 11.3 0.00 0.00 0.00 90 1009.6
20260502214146 10 158 9.7 12.9 0.00 0.00 0.00 90 1009.5
20260502213643 10 192 11.3 11.3 0.00 0.00 0.00 90 1009.3
20260502213140 10 178 8.0 9.7 0.00 0.00 0.00 90 1009.4
20260502212639 10 193 12.9 14.5 0.00 0.00 0.00 89 1009.2
20260502212137 10 190 11.3 12.9 0.00 0.00 0.00 89 1009.3
20260502211632 10 176 14.5 16.1 0.00 0.00 0.00 89 1009.3
20260502211130 10 166 12.9 12.9 0.00 0.00 0.00 89 1009.5
20260502210627 10 183 12.9 14.5 0.00 0.00 0.00 88 1009.1
20260502210124 10 209 11.3 14.5 0.00 0.00 0.00 89 1009.5
20260502205620 10 184 17.7 17.7 0.00 0.00 0.00 88 1009.6
20260502205112 10 178 11.3 12.9 0.00 0.00 0.00 88 1009.6
20260502204608 10 187 14.5 14.5 0.00 0.00 0.00 89 1009.6
20260502204106 10 173 12.9 14.5 0.00 0.00 0.00 89 1009.6
20260502203602 10 181 12.9 14.5 0.00 0.00 0.00 88 1009.9
20260502203054 10 189 14.5 16.1 0.00 0.00 0.00 88 1009.7
20260502202550 10 203 11.3 12.9 0.00 0.00 0.00 88 1009.7
20260502202048 10 200 12.9 14.5 0.00 0.00 0.00 88 1009.7
20260502201543 10 194 12.9 12.9 0.00 0.00 0.00 89 1009.7
20260502201035 10 209 12.9 14.5 0.00 0.00 0.00 88 1009.7
20260502200531 10 202 16.1 16.1 0.00 0.00 0.00 88 1009.8
20260502200029 10 194 11.3 12.9 0.00 0.00 0.00 88 1009.6
20260502195526 10 196 17.7 20.9 0.00 0.00 0.00 88 1009.6
20260502195022 10 200 17.7 20.9 0.00 0.00 0.00 88 1009.8
20260502194519 10 201 19.3 22.5 0.00 0.00 0.00 88 1009.9
20260502194015 10 207 20.9 22.5 0.00 0.00 0.00 88 1009.9
20260502193512 10 202 19.3 20.9 0.00 0.00 0.00 88 1010.0
20260502193003 10 179 16.1 17.7 0.00 0.00 0.00 88 1009.9
20260502192459 10 186 17.7 20.9 0.00 0.00 0.00 89 1009.9
20260502191956 10 194 20.9 22.5 0.00 0.00 0.00 88 1010.1
20260502191453 10 192 17.7 20.9 0.00 0.00 0.00 88 1010.3
20260502190951 10 184 17.7 17.7 0.00 0.00 0.00 88 1010.3
20260502190448 10 196 14.5 16.1 0.00 0.00 0.00 88 1010.1
20260502185944 10 184 17.7 17.7 0.00 0.00 0.00 88 1010.3
20260502185439 10 195 17.7 17.7 0.00 0.00 0.00 88 1010.3
20260502184931 10 192 17.7 17.7 0.00 0.00 0.00 88 1010.7
20260502184426 10 198 14.5 16.1 0.00 0.00 0.00 87 1010.5
20260502183923 10 201 17.7 20.9 0.00 0.00 0.00 88 1010.6
20260502183419 10 180 14.5 16.1 0.00 0.00 0.00 87 1010.5
20260502182915 10 193 16.1 17.7 0.00 0.00 0.00 87 1010.4
20260502182410 10 185 17.7 20.9 0.00 0.00 0.00 86 1010.6
20260502181907 11 162 14.5 16.1 0.00 0.00 0.00 86 1010.5
20260502181405 11 175 14.5 16.1 0.00 0.00 0.00 84 1010.6
20260502180903 11 190 19.3 20.9 0.00 0.00 0.00 81 1010.6
20260502180359 11 180 16.1 17.7 0.00 0.00 0.00 81 1010.8
20260502170318 11 185 11.3 12.9 0.00 0.00 0.00 85 1010.9
20260502164306 10 197 16.1 16.1 0.00 0.00 0.00 86 1011.2
20260502163801 10 197 16.1 17.7 0.00 0.00 0.00 86 1011.1
20260502163258 10 198 14.5 16.1 0.00 0.00 0.00 86 1010.9
20260502162756 10 177 16.1 20.9 0.00 0.00 0.00 86 1011.0
20260502162253 10 202 19.3 22.5 0.00 0.00 0.00 86 1011.2
20260502161749 10 194 19.3 22.5 0.00 0.00 0.00 84 1011.0
20260502161245 10 199 22.5 24.1 0.00 0.00 0.00 85 1010.9
20260502160743 10 201 22.5 24.1 0.00 0.00 0.00 83 1011.2
20260502160242 10 198 20.9 22.5 0.00 0.00 0.00 84 1011.2
20260502152200 11 191 16.1 17.7 0.00 0.00 0.00 85 1011.2
20260502151658 10 194 14.5 14.5 0.00 0.00 0.00 86 1011.5
20260502151155 10 178 12.9 14.5 0.00 0.00 0.00 86 1011.7
20260502150652 11 204 16.1 16.1 0.00 0.00 0.00 83 1011.8
20260502150148 12 199 17.7 17.7 0.00 0.00 0.00 82 1011.2
20260502140107 12 181 8.0 9.7 0.00 0.00 0.00 78 1011.4
20260502130531 11 13 3.2 3.2 0.00 0.00 0.00 79 1012.1
20260502123515 10 103 3.2 3.2 0.00 0.00 0.00 81 1011.9
20260502123011 10 244 4.8 4.8 0.00 0.00 0.00 81 1012.1
20260502122508 10 232 4.8 4.8 0.00 0.00 0.00 81 1012.0
20260502122005 10 207 9.7 11.3 0.00 0.00 0.00 81 1011.9
20260502121502 10 214 9.7 11.3 0.00 0.00 0.00 81 1011.8
20260502120959 10 204 8.0 9.7 0.00 0.00 0.00 81 1011.6
20260502120456 10 202 8.0 9.7 0.00 0.00 0.00 81 1011.7
20260502115451 10 209 8.0 9.7 0.00 0.00 0.00 81 1011.5
20260502114946 10 211 9.7 11.3 0.00 0.00 0.00 81 1011.5
20260502114443 10 197 9.7 12.9 0.00 0.00 0.00 81 1011.5
20260502113940 10 217 9.7 11.3 0.00 0.00 0.00 81 1011.5
20260502113438 10 207 9.7 12.9 0.00 0.00 0.00 81 1011.5
20260502112936 10 212 9.7 11.3 0.00 0.00 0.00 81 1011.7
20260502112433 10 226 9.7 11.3 0.00 0.00 0.00 81 1011.4
20260502111931 10 201 11.3 12.9 0.00 0.00 0.00 81 1011.2
20260502111427 10 214 9.7 11.3 0.00 0.00 0.00 81 1011.0
20260502110925 10 197 12.9 12.9 0.00 0.00 0.00 81 1011.3
20260502110423 10 198 11.3 12.9 0.00 0.00 0.00 81 1011.3
20260502105920 9 193 6.4 9.7 0.00 0.00 0.00 79 1011.2
20260502105417 9 200 4.8 4.8 0.00 0.00 0.00 79 1011.3
20260502104916 9 200 6.4 6.4 0.00 0.00 0.00 79 1011.2
20260502104413 9 208 6.4 6.4 0.00 0.00 0.00 79 1011.2
20260502103910 9 223 9.7 11.3 0.00 0.00 0.00 80 1011.2
20260502103408 9 201 6.4 6.4 0.00 0.00 0.00 79 1011.1
20260502102904 9 226 8.0 9.7 0.00 0.00 0.00 79 1011.1
20260502102400 9 200 8.0 9.7 0.00 0.00 0.00 78 1011.0
20260502101858 9 189 4.8 4.8 0.00 0.00 0.00 77 1011.1
20260502101356 9 207 4.8 6.4 0.00 0.00 0.00 77 1010.8
20260502100854 9 210 6.4 6.4 0.00 0.00 0.00 77 1010.9
20260502100353 9 196 4.8 4.8 0.00 0.00 0.00 77 1010.9
20260502091327 9 220 9.7 12.9 0.00 0.00 0.00 74 1010.7
20260502090824 9 210 12.9 12.9 0.00 0.00 0.00 75 1010.8
20260502090321 9 206 11.3 11.3 0.00 0.00 0.00 75 1010.7
20260502071216 10 206 6.4 6.4 0.00 0.00 0.00 73 1010.8
20260502070714 10 199 6.4 6.4 0.00 0.00 0.00 71 1010.9
20260502070211 10 207 6.4 6.4 0.00 0.00 0.00 70 1010.8
20260502065710 10 236 3.2 4.8 0.00 0.00 0.00 70 1010.7
20260502065207 10 260 8.0 9.7 0.00 0.00 0.00 70 1010.5
20260502064706 10 232 8.0 9.7 0.00 0.00 0.00 70 1010.6
20260502064202 10 197 9.7 11.3 0.00 0.00 0.00 70 1010.7
20260502063700 11 288 9.7 14.5 0.00 0.00 0.00 69 1010.7
20260502063158 11 271 17.7 17.7 0.00 0.00 0.00 69 1010.6
20260502062655 11 263 12.9 14.5 0.00 0.00 0.00 68 1010.9
20260502062152 11 247 16.1 16.1 0.00 0.00 0.00 69 1010.9
20260502061651 11 265 11.3 12.9 0.00 0.00 0.00 70 1010.9
20260502061148 11 256 12.9 16.1 0.00 0.00 0.00 69 1010.7
20260502060642 11 247 14.5 16.1 0.00 0.00 0.00 68 1010.6
20260502060139 11 265 19.3 24.1 0.00 0.00 0.00 66 1010.7
20260502055637 11 218 17.7 20.9 0.00 0.00 0.00 66 1010.6
20260502055134 11 250 16.1 17.7 0.00 0.00 0.00 67 1010.8
20260502054633 11 249 19.3 24.1 0.00 0.00 0.00 67 1010.8
20260502054130 11 262 19.3 22.5 0.00 0.00 0.00 64 1010.9
20260502053627 11 251 17.7 20.9 0.00 0.00 0.00 68 1010.8
20260502053125 11 215 20.9 24.1 0.00 0.00 0.00 65 1010.9
20260502052623 11 252 16.1 17.7 0.00 0.00 0.00 66 1010.9
20260502052121 11 241 12.9 14.5 0.00 0.00 0.00 64 1011.0
20260502051619 11 242 8.0 9.7 0.00 0.00 0.00 64 1010.9
20260502051117 11 245 11.3 12.9 0.00 0.00 0.00 65 1011.1
20260502050612 11 253 9.7 11.3 0.00 0.00 0.00 65 1010.9
20260502050109 11 244 8.0 9.7 0.00 0.00 0.00 63 1010.9
20260502045605 11 91 4.8 6.4 0.00 0.00 0.00 65 1011.0
20260502045103 11 278 6.4 9.7 0.00 0.00 0.00 65 1011.1
20260502044559 11 313 4.8 6.4 0.00 0.00 0.00 64 1010.9
20260502044056 11 215 4.8 6.4 0.00 0.00 0.00 63 1011.1
20260502043554 11 99 4.8 6.4 0.00 0.00 0.00 65 1011.2
20260502043050 11 190 3.2 4.8 0.00 0.00 0.00 66 1011.2
20260502042544 11 225 3.2 4.8 0.00 0.00 0.00 65 1011.1
20260502042043 11 48 3.2 3.2 0.00 0.00 0.00 65 1011.1
20260502041540 11 270 6.4 6.4 0.00 0.00 0.00 65 1011.0
20260502041037 11 263 6.4 6.4 0.00 0.00 0.00 66 1011.3
20260502040533 11 109 4.8 4.8 0.00 0.00 0.00 66 1011.1
20260502040031 11 308 6.4 6.4 0.00 0.00 0.00 66 1011.2
20260502035526 11 271 4.8 4.8 0.00 0.00 0.00 67 1011.3
20260502035024 11 278 9.7 12.9 0.00 0.00 0.00 66 1011.4
20260502034522 11 214 4.8 4.8 0.00 0.00 0.00 65 1011.2
20260502034020 11 334 6.4 6.4 0.00 0.00 0.00 65 1011.3
20260502033518 11 324 4.8 6.4 0.00 0.00 0.00 66 1011.2
20260502033015 11 256 6.4 11.3 0.00 0.00 0.00 66 1011.1
20260502032511 11 221 9.7 12.9 0.00 0.00 0.00 67 1011.1
20260502032008 11 252 4.8 6.4 0.00 0.00 0.00 66 1011.1
20260502031506 11 68 6.4 6.4 0.00 0.00 0.00 66 1011.2
20260502031004 11 320 3.2 4.8 0.00 0.00 0.00 66 1011.3
20260502030502 11 271 3.2 4.8 0.00 0.00 0.00 66 1011.3
20260502030000 11 297 3.2 4.8 0.00 0.00 0.00 66 1011.2